SL-16 DEB, 24866

Orbit data source: Space-Track

SL-16 DEB, 24866 is space debris in LEO originally from a launch on Wed, 04 Sep 1996 UTC launched from the Tyuratam Missile And Space Complex (TTMTR). Debris objects in space refer to the collection of defunct objects orbiting the Earth. Examples of debris include non-operational satellites, rocket bodies, and fragments generated from explosions, collisions, or faulty payload assembly.

Loading next visibility...
Identifier
24866, 1996-051H
Orbit
LEO
Country
Flag of CISCIS
Related business
Manufacturer
Unknown
Mission
Spacecraft
Bus & Motor
Unknown
Mass
Unknown
Launch date (UTC)
1996-09-04 (30 years ago)
Launch vehicle
Unknown
Launch site
Tyuratam Missile And Space Complex (TTMTR)
Object type
Payload
Rocket body
Debris
Shape & HBR
Unknown shape, 0.2 m
Radar Cross Section
Small (<0.1 m²)

Expand to show TLE details & history
Last TLE update: 7 hours ago

TLE from 7 hours ago
0 SL-16 DEB
1 24866U 96051H   26094.25108851  .00000273  00000-0  17454-3 0  9994
2 24866  71.1237 142.0808 0060086  27.5526 332.8758 14.10949266522129
Epoch: 2026-04-04T06:01Z
TLE epoch observation values (Epoch: 2026-04-04T06:01:34.047Z)
Latitude
Longitude
-140.88461°
Altitude
819.891 km
Speed
7.463 km/s
True Right ascension
09h 28m 19s
True Declination
0° 00' 00"
Sunlit
Object was in full shadow at epoch
Visualization orbit readout
Latitude
Unknown
Longitude
Unknown
Altitude
Unknown
Speed
Unknown
Apparent Right ascension
Unknown
Apparent Declination
Unknown
Sunlit
N/A
Visualization observer readout
Local Sidereal Time
18:45:47
Azimuth
Unknown
Elevation
Unknown
Doppler factor
Unknown
Orbital elements
Apogee altitude
897.497 km
Perigee altitude
810.587 km
Semi-major axis
7,232.179 km
Eccentricity
0.00601
Inclination
71.1237°
RAAN
142.0808°
Arg. of periapsis
27.5526°
True anomaly
332.55977°
Mean anomaly
332.8758°
Eccentric anomaly
332.718°
Mean motion
3.5289 °/min
Orbital period
102.01 mins
BSTAR
0.00017454
Loading maneuver chart data...
Computing Atmospheric mass density...
Loading historical data...
Loading historical data...
Loading historical data...
Loading historical data...
Loading historical data...
Loading historical data...
Loading historical data...

Documentation

Showing up to 5 results
|